AirNav   Air Wisconsin pilot careers
 
 572 users online  

53K Osage City Municipal Airport
Osage City, Kansas, USA


FAA INFORMATION EFFECTIVE 04 JANUARY 2018

Location

FAA Identifier: 53K
Lat/Long: 38-38-00.3750N / 095-48-06.4500W
38-38.006250N / 095-48.107500W
38.6334375 / -95.8017917
(estimated)
Elevation: 1105 ft. / 337 m (estimated)
Variation: 06E (1985)
From city: 1 mile E of OSAGE CITY, KS
Time zone: UTC -6 (UTC -5 during Daylight Saving Time)
Zip code: 66523

Airport Operations

Airport use: Open to the public
Activation date: 01/1949
Control tower: no
ARTCC: KANSAS CITY CENTER
FSS: WICHITA FLIGHT SERVICE STATION
NOTAMs facility: ICT (NOTAM-D service available)
Attendance: UNATNDD
Wind indicator: yes
Segmented circle: no
Lights: SS-SR
Beacon: white-green (lighted land airport)

Airport Communications

CTAF: 122.9

Nearby radio navigation aids

VOR radial/distance  VOR name  Freq  Var
EMPr030/25.9EMPORIA VORTAC112.8008E
TOPr196/32.4TOPEKA VORTAC117.8005E

 
NDB name  Hdg/Dist  Freq  Var  ID
BOYD344/20.424505EUKL ..- -.- .-..

Airport Services

Fuel available: 100LL
FUEL AVBL 24 HRS WITH CREDIT CARD.
Parking: tiedowns
Bottled oxygen: NONE
Bulk oxygen: NONE

Runway Information

Runway 17/35

Dimensions: 2560 x 40 ft. / 780 x 12 m
Surface: asphalt, in fair condition
Runway edge lights: non-standard
RWY END LTS RED, NO SPLIT LENSE; DSPLCD THLD LTS GREEN, NO SPLIT LENSE.
Gradient: S
RUNWAY 17  RUNWAY 35
Latitude: 38-38.217167N38-37.795333N
Longitude: 095-48.107500W095-48.107500W
Elevation: 1092.0 ft.1105.0 ft.
Gradient: 0.5% UP
Traffic pattern: leftleft
Runway heading: 174 magnetic, 180 true354 magnetic, 000 true
Displaced threshold: 215 ft.252 ft.
Markings: basic, in good conditionbasic, in good condition
Obstructions: 55 ft. tree, 765 ft. from runway, 38 ft. left of centerline, 10:1 slope to clear
+15 ROAD 50 FT FM RWY END; +30 POLE 150 FT FM RWY END 120 FT L OF CNTRLN.
none
+15 ROAD 27 FT FM RWY END.

Airport Ownership and Management from official FAA records

Ownership: Publicly-owned
Owner: CITY OF OSAGE
201 S 5TH ST
OSAGE CITY, KS 66523
Phone 785-528-3714
Manager: RODNEY WILLIS
201 S 5TH ST
OSAGE CITY, KS 66523
Phone 785-528-3714

Airport Operational Statistics

Aircraft based on the field: 12
Single engine airplanes: 8
Helicopters: 4
    
Aircraft operations: avg 52/week *
81% local general aviation
19% transient general aviation
* for 12-month period ending 30 September 2014

Additional Remarks

PAJA ACTIVITIES SAT & SUN.
+15 RD 55 FT E OF RWY.

Instrument Procedures

There are no published instrument procedures at 53K.

Some nearby airports with instrument procedures:

KFOE - Topeka Regional Airport (20 nm N)
KUKL - Coffey County Airport (20 nm S)
KEMP - Emporia Municipal Airport (26 nm SW)
KOWI - Ottawa Municipal Airport (26 nm E)
KTOP - Philip Billard Municipal Airport (27 nm N)
 
Loc | Ops | Rwys | IFR | FBO | Links
Com | Nav | Svcs | Stats | Notes

Kansas City Aviation Department
 
Area around 53K (Osage City Municipal Airport)
 
Road maps at: MapQuest Bing Google
 
Aerial photo
WARNING: Photo may not be current or correct
Aerial photo of 53K (Osage City Municipal Airport)
Do you have a better or more recent aerial photo of Osage City Municipal Airport that you would like to share? If so, please send us your photo.

 
Sectional chart

 
Airport distance calculator
Flying to Osage City Municipal Airport? Find the distance to fly.

From to 53K

Sunrise and sunset
Times for 22-Jan-2018
 Local
(UTC-6)
 Zulu
(UTC)
Morning civil twilight07:0913:09
Sunrise07:3713:37
Sunset17:3223:32
Evening civil twilight18:0100:01

Current date and time
Zulu (UTC)  23-Jan-2018 05:13:15
Local (UTC-6)  22-Jan-2018 23:13:15
 
METAR
KFOE 
19nm N 
230453Z AUTO 32019G28KT 10SM OVC019 M01/M03 A2989 RMK AO2 PK WND 31030/0400 SLP130 T10061033
KEMP 
26nm SW 
230453Z AUTO 32013G21KT 10SM OVC031 01/M03 A2992 RMK AO2 PK WND 31029/0357 SLP143 T00061033
KOWI 
26nm E 
230455Z AUTO 31018G32KT 10SM OVC020 M00/M03 A2988 RMK AO2
KTOP 
27nm N 
230453Z AUTO 31016G25KT 10SM OVC021 M01/M03 A2990 RMK AO2 PK WND 30032/0420 UPB31E32 SLP131 P0000 T10061033
KLWC 
36nm NE 
230452Z AUTO 29015G24KT 10SM OVC022 M01/M03 A2987 RMK AO2 PK WND 29029/0415 SNE09 SLP121 P0000 T10061033
TAF
KFOE 
19nm N 
230221Z 2302/2324 30019G26KT 3SM -SN BR OVC013 TEMPO 2302/2303 1 1/2SM -SN BR OVC007 FM230300 30018G26KT P6SM OVC025 FM230800 31014KT P6SM BKN025 FM231300 30010KT P6SM SCT025
NOTAMs
Click for the latest NOTAMs
NOTAMs are issued by the DoD/FAA and will open in a separate window not controlled by AirNav.

 

 
 

Would you like to see your business listed on this page?

 If your business provides an interesting product or service to pilots, flight crews, aircraft, or users of the Osage City Municipal Airport, you should consider listing it here.  To start the listing process, click on the button below
 
Add a business
 

Other Pages about Osage City Municipal Airport

Update a link
 
Copyright © AirNav, LLC. All rights reserved. Privacy Policy  Contact